GW4332 Weather Reports


time (UTC)temp
F
wind
direction
speed
knots
gust
knots
rain 1hr
in
rain 24hr
in
rain mn
in
humidity
%
barometer
mb
20260510123030 60 5 9.6 15.6 0.00 0.00 0.00 64 1014.8
20260510122029 59 6 9.6 15.6 0.00 0.00 0.00 67 1014.8
20260510121030 59 2 8.7 14.8 0.00 0.00 0.00 66 1014.9
20260510120030 58 4 10.4 16.5 0.00 0.00 0.00 67 1014.9
20260510115030 58 343 10.4 16.5 0.00 0.00 0.00 69 1014.9
20260510114030 58 352 11.3 16.5 0.00 0.00 0.00 70 1014.9
20260510113030 57 350 12.2 17.4 0.00 0.00 0.00 71 1015.1
20260510112030 58 354 10.4 17.4 0.00 0.00 0.00 71 1015.2
20260510111030 57 339 10.4 16.5 0.00 0.00 0.00 71 1015.3
20260510110030 57 357 8.7 16.5 0.00 0.00 0.00 71 1015.2
20260510105029 57 353 10.4 15.6 0.00 0.00 0.00 72 1015.3
20260510104030 57 340 12.2 16.5 0.00 0.00 0.00 73 1015.5
20260510103030 57 355 9.6 16.5 0.00 0.00 0.00 73 1015.4
20260510102030 57 359 9.6 16.5 0.00 0.00 0.00 74 1015.5
20260510101030 56 349 12.2 17.4 0.00 0.00 0.00 74 1015.4
20260510100030 56 338 11.3 16.5 0.00 0.00 0.00 76 1015.4
20260510095029 56 336 12.2 16.5 0.00 0.00 0.00 77 1015.4
20260510094029 56 330 13.0 16.5 0.00 0.00 0.00 78 1015.4
20260510093030 55 333 13.0 16.5 0.00 0.00 0.00 78 1015.5
20260510092030 56 332 13.0 15.6 0.00 0.00 0.00 77 1015.6
20260510091030 56 338 11.3 16.5 0.00 0.00 0.00 72 1015.6
20260510090030 56 353 9.6 14.8 0.00 0.00 0.00 68 1015.7
20260510085030 55 341 11.3 14.8 0.00 0.00 0.00 68 1015.7
20260510084029 55 341 11.3 14.8 0.00 0.00 0.00 69 1015.6
20260510083029 55 344 8.7 14.8 0.00 0.00 0.00 68 1015.7
20260510082030 55 347 8.7 13.0 0.00 0.00 0.00 67 1015.8
20260510081030 55 32 7.8 16.5 0.00 0.00 0.00 66 1015.8
20260510080030 55 358 8.7 13.9 0.00 0.00 0.00 67 1015.8
20260510075030 55 13 7.8 13.9 0.00 0.00 0.00 67 1015.7
20260510074029 55 33 7.8 14.8 0.00 0.00 0.00 69 1015.7
20260510073029 54 22 8.7 13.9 0.00 0.00 0.00 71 1015.8
20260510072030 54 42 7.0 12.2 0.00 0.00 0.00 72 1015.8
20260510071030 55 16 7.8 12.2 0.00 0.00 0.00 73 1016.0
20260510070030 55 13 8.7 13.9 0.00 0.00 0.00 72 1016.0
20260510065030 55 28 8.7 13.0 0.00 0.00 0.00 71 1015.9
20260510064029 54 358 8.7 14.8 0.00 0.00 0.00 70 1015.9
20260510063029 54 23 8.7 15.6 0.00 0.00 0.00 70 1015.8
20260510062029 54 20 8.7 13.0 0.00 0.00 0.00 72 1015.7
20260510061030 54 13 8.7 13.9 0.00 0.00 0.00 73 1015.6
20260510060029 54 7 9.6 15.6 0.00 0.00 0.00 73 1015.8
20260510055030 54 10 7.8 13.0 0.00 0.00 0.00 73 1015.7
20260510054030 53 21 7.0 13.9 0.00 0.00 0.00 73 1015.7
20260510053029 53 30 7.8 14.8 0.00 0.00 0.00 72 1015.8
20260510052029 53 29 8.7 13.0 0.00 0.00 0.00 72 1015.8
20260510051029 53 13 7.8 13.9 0.00 0.00 0.00 72 1015.8
20260510050030 53 29 8.7 14.8 0.00 0.00 0.00 73 1015.6
20260510045030 53 10 7.8 13.9 0.00 0.00 0.00 73 1015.6
20260510044029 53 27 7.8 13.0 0.00 0.00 0.00 73 1015.5
20260510043029 53 24 7.0 13.0 0.00 0.00 0.00 74 1015.6
20260510042029 53 37 7.0 12.2 0.00 0.00 0.00 74 1015.6
20260510041029 53 21 7.8 14.8 0.00 0.00 0.00 76 1015.6
20260510040029 53 17 7.8 14.8 0.00 0.00 0.00 77 1015.6
20260510035030 53 13 7.0 13.0 0.00 0.00 0.00 77 1015.7
20260510034030 54 24 7.8 12.2 0.00 0.00 0.00 76 1015.8
20260510033029 53 33 6.1 11.3 0.00 0.00 0.00 76 1016.0
20260510032029 53 28 7.0 11.3 0.00 0.00 0.00 75 1016.0
20260510031030 54 18 6.1 11.3 0.00 0.00 0.00 76 1016.0
20260510030030 53 19 7.0 13.0 0.00 0.00 0.00 75 1016.0
20260510025030 53 6 7.8 12.2 0.00 0.00 0.00 77 1015.9
20260510024029 53 18 7.0 11.3 0.00 0.00 0.00 78 1015.9
20260510023030 54 23 7.8 11.3 0.00 0.00 0.00 79 1016.0
20260510022030 54 352 7.8 13.0 0.00 0.00 0.00 79 1016.0
20260510021029 54 352 7.0 11.3 0.00 0.00 0.00 79 1016.0
20260510020029 54 355 8.7 13.9 0.00 0.00 0.00 79 1016.1
20260510015030 54 15 7.8 12.2 0.00 0.00 0.00 78 1016.1
20260510014029 54 357 7.8 11.3 0.00 0.00 0.00 78 1016.1
20260510013030 54 5 6.1 11.3 0.00 0.00 0.00 78 1016.2
20260510012030 54 5 7.8 11.3 0.00 0.00 0.00 78 1016.1
20260510011030 54 351 7.0 11.3 0.00 0.00 0.00 78 1016.1
20260510010029 54 344 7.8 10.4 0.00 0.00 0.00 79 1016.2
20260510005030 54 348 7.0 10.4 0.00 0.00 0.00 80 1016.1
20260510004030 54 5 5.2 11.3 0.00 0.00 0.00 80 1016.2
20260510003029 54 22 3.5 7.0 0.00 0.00 0.00 79 1016.2
20260510002029 54 38 4.3 7.8 0.00 0.00 0.00 78 1016.3
20260510001029 54 37 3.5 5.2 0.00 0.00 0.00 77 1016.4
20260510000030 55 33 3.5 6.1 0.00 0.00 0.00 77 1016.4
20260509235030 55 40 3.5 7.0 0.00 0.00 0.00 76 1016.5
20260509234029 55 48 3.5 6.1 0.00 0.00 0.00 76 1016.6
20260509233030 55 48 3.5 5.2 0.00 0.00 0.00 75 1016.5
20260509232029 56 47 3.5 6.1 0.00 0.00 0.00 74 1016.5
20260509231030 55 51 3.5 7.0 0.00 0.00 0.00 73 1016.6
20260509230030 56 48 3.5 7.0 0.00 0.00 0.00 73 1016.6
20260509225029 56 35 4.3 7.0 0.00 0.00 0.00 72 1016.7
20260509224029 56 37 4.3 8.7 0.00 0.00 0.00 72 1016.8
20260509223030 56 44 5.2 8.7 0.00 0.00 0.00 72 1016.8
20260509222035 56 40 5.2 9.6 0.00 0.00 0.00 72 1016.9
20260509221030 56 33 6.1 9.6 0.00 0.00 0.00 72 1016.9
20260509220030 56 39 6.1 10.4 0.00 0.00 0.00 72 1016.9
20260509215029 56 26 5.2 9.6 0.00 0.00 0.00 73 1017.0
20260509214030 57 32 6.1 10.4 0.00 0.00 0.00 73 1016.9
20260509213030 57 37 7.0 10.4 0.00 0.00 0.00 73 1017.0
20260509212029 57 41 6.1 9.6 0.00 0.00 0.00 73 1017.1
20260509211030 57 34 6.1 9.6 0.00 0.00 0.00 72 1017.1
20260509210030 57 36 6.1 10.4 0.00 0.00 0.00 71 1017.0
20260509205030 58 37 6.1 9.6 0.00 0.00 0.00 71 1017.2
20260509204030 58 34 6.1 10.4 0.00 0.00 0.00 70 1017.1
20260509203030 58 40 5.2 9.6 0.00 0.00 0.00 70 1017.2
20260509202029 58 38 5.2 8.7 0.00 0.00 0.00 69 1017.2
20260509201030 59 33 5.2 9.6 0.00 0.00 0.00 69 1017.1
20260509200030 59 43 5.2 8.7 0.00 0.00 0.00 68 1017.1
20260509195030 59 41 5.2 8.7 0.00 0.00 0.00 68 1017.1
20260509194029 59 28 5.2 10.4 0.00 0.00 0.00 69 1017.1
20260509193029 60 24 6.1 10.4 0.00 0.00 0.00 70 1016.9
20260509192030 60 6 7.0 11.3 0.00 0.00 0.00 69 1016.8
20260509191030 60 357 7.8 11.3 0.00 0.00 0.00 68 1016.7
20260509190030 61 349 7.8 11.3 0.00 0.00 0.00 66 1016.7
20260509185029 61 357 6.1 8.7 0.00 0.00 0.00 65 1016.7
20260509184030 61 23 5.2 8.7 0.00 0.00 0.00 65 1016.7
20260509183030 61 357 6.1 9.6 0.00 0.00 0.00 65 1016.7
20260509182030 62 350 6.1 9.6 0.00 0.00 0.00 63 1016.6
20260509181030 62 1 5.2 9.6 0.00 0.00 0.00 64 1016.7
20260509180030 61 352 4.3 8.7 0.00 0.00 0.00 64 1016.6
20260509175029 61 333 7.0 9.6 0.00 0.00 0.00 65 1016.7
20260509174029 61 333 7.8 10.4 0.00 0.00 0.00 63 1016.7
20260509173030 61 331 8.7 11.3 0.00 0.00 0.00 62 1016.7
20260509172030 62 338 8.7 10.4 0.00 0.00 0.00 62 1016.8
20260509171029 62 339 7.8 11.3 0.00 0.00 0.00 62 1016.7
20260509170030 62 352 7.8 10.4 0.00 0.00 0.00 59 1016.7
20260509165030 62 349 7.0 11.3 0.00 0.00 0.00 61 1016.5
20260509164030 62 339 9.6 12.2 0.00 0.00 0.00 59 1016.5
20260509163029 62 352 8.7 12.2 0.00 0.00 0.00 58 1016.6
20260509162030 62 9 7.8 11.3 0.00 0.00 0.00 60 1016.5
20260509161030 63 0 7.8 12.2 0.00 0.00 0.00 60 1016.5
20260509160029 62 354 7.8 11.3 0.00 0.00 0.00 60 1016.4
20260509155030 61 343 8.7 12.2 0.00 0.00 0.00 60 1016.5
20260509154030 62 2 7.8 11.3 0.00 0.00 0.00 59 1016.5
20260509153030 62 352 7.8 12.2 0.00 0.00 0.00 60 1016.6
20260509152029 61 340 8.7 12.2 0.00 0.00 0.00 61 1016.6
20260509151030 61 343 9.6 12.2 0.00 0.00 0.00 61 1016.7
20260509150030 61 348 7.8 11.3 0.00 0.00 0.00 61 1017.0
20260509145030 61 340 9.6 13.0 0.00 0.00 0.00 60 1017.2
20260509144030 61 332 8.7 12.2 0.00 0.00 0.00 61 1017.3
20260509143029 61 1 6.1 12.2 0.00 0.00 0.00 60 1017.5
20260509142030 60 338 9.6 12.2 0.00 0.00 0.00 61 1017.4
20260509141029 61 331 10.4 13.0 0.00 0.00 0.00 60 1017.5
20260509140030 61 339 9.6 13.0 0.00 0.00 0.00 58 1017.6
20260509135030 61 341 8.7 13.0 0.00 0.00 0.00 58 1017.7
20260509134029 61 0 7.8 12.2 0.00 0.00 0.00 61 1017.7
20260509133030 60 335 9.6 13.0 0.00 0.00 0.00 61 1017.9
20260509132029 60 329 9.6 13.0 0.00 0.00 0.00 60 1018.2
20260509131029 60 338 8.7 11.3 0.00 0.00 0.00 61 1018.2
20260509130030 60 335 7.8 11.3 0.00 0.00 0.00 60 1018.4
20260509125029 60 327 9.6 12.2 0.00 0.00 0.00 61 1018.6
20260509124030 59 323 9.6 12.2 0.00 0.00 0.00 62 1018.6